Location: Sternwarte ZA, Rosenfeld-Brittheim
(48.2889°N, 8.6789°E)
Time: 02:31:10
(UTC+01:00)

ISS - Visible Passes

Search period start: 01 December 2021 00:00
Search period end: 11 December 2021 00:00
Orbit: 417 x 423 km, 51.6° (Epoch: 30 November)

Date Brightness Start Highest point End Pass type
(mag) Time Alt. Az. Time Alt. Az. Time Alt. Az.
01 Dec -3.2 17:07:35 10° WNW 17:10:52 45° N 17:14:10 10° ENE visible
01 Dec -3.2 18:44:36 10° WNW 18:47:25 55° NW 18:47:25 55° NW visible
02 Dec -3.6 17:57:23 10° WNW 18:00:45 57° NNE 18:02:15 29° E visible
02 Dec -0.8 19:34:18 10° WNW 19:35:14 17° W 19:35:14 17° W visible
03 Dec -3.4 17:10:09 10° WNW 17:13:29 49° N 17:16:48 10° E visible
03 Dec -3.3 18:47:02 10° WNW 18:50:09 60° SW 18:50:09 60° SW visible
04 Dec -3.8 17:59:48 10° WNW 18:03:13 87° SSW 18:05:11 23° ESE visible
04 Dec -0.6 19:37:11 10° W 19:38:12 15° WSW 19:38:12 15° WSW visible
05 Dec -3.7 17:12:34 10° WNW 17:15:59 71° NNE 17:19:22 10° ESE visible
05 Dec -2.0 18:49:38 10° W 18:52:37 28° SW 18:53:25 25° S visible
06 Dec -2.5 18:02:15 10° WNW 18:05:29 42° SSW 18:08:42 10° SE visible
07 Dec -3.2 17:14:56 10° WNW 17:18:18 62° SSW 17:21:40 10° SE visible
07 Dec -0.6 18:53:05 10° WSW 18:54:35 12° SW 18:56:04 10° SSW visible
08 Dec -0.9 18:05:04 10° W 18:07:32 19° SW 18:09:59 10° S visible
09 Dec -1.4 17:17:28 10° W 17:20:25 28° SW 17:23:22 10° SSE visible
